This is the latest recevied weather packets stored in our database for station/object KD5UMO-1. If no packets are shown the sender has not sent any weather packets the latest 10 day(s).
| Time | Temp. | Humidity | Pressure | Rain* | Wind** | Luminosity | Snow |
|---|---|---|---|---|---|---|---|
| 1778075121 | 11.67° C | 85% | 1014 hPa | 0 mm | - | 57 W/m² | - |
| 1778074818 | 11.67° C | 85% | 1014.1 hPa | 0 mm | - | 50 W/m² | - |
| 1778074515 | 11.67° C | 86% | 1014 hPa | 0 mm | - | 65 W/m² | - |
| 1778074212 | 11.67° C | 86% | 1013.9 hPa | 0 mm | - | 52 W/m² | - |
| 1778073909 | 11.67° C | 86% | 1013.8 hPa | 0 mm | - | 30 W/m² | - |
| 1778073606 | 11.67° C | 86% | 1013.7 hPa | 0 mm | - | 34 W/m² | - |
| 1778073303 | 11.67° C | 85% | 1013.4 hPa | 0 mm | - | 35 W/m² | - |
| 1778073000 | 11.67° C | 85% | 1013.8 hPa | 0 mm | - | 33 W/m² | - |
| 1778072696 | 11.67° C | 84% | 1013.5 hPa | 0 mm | - | 38 W/m² | - |
| 1778072394 | 11.67° C | 84% | 1013.5 hPa | 0 mm | - | 32 W/m² | - |
| 1778072092 | 11.67° C | 84% | 1013.6 hPa | 0 mm | - | 33 W/m² | - |
| 1778071790 | 11.67° C | 83% | 1013.5 hPa | 0 mm | - | 27 W/m² | - |
| 1778071487 | 11.67° C | 83% | 1013.4 hPa | 0 mm | - | 23 W/m² | - |
| 1778071185 | 11.67° C | 83% | 1013.5 hPa | 0 mm | - | 7 W/m² | - |
| 1778070883 | 11.67° C | 83% | 1013.4 hPa | 0 mm | - | 16 W/m² | - |
| 1778070580 | 11.67° C | 83% | 1013.4 hPa | 0 mm | - | 13 W/m² | - |
| 1778070277 | 11.67° C | 83% | 1013.2 hPa | 0 mm | - | 13 W/m² | - |
| 1778069975 | 11.67° C | 82% | 1013.1 hPa | 0 mm | - | 15 W/m² | - |
| 1778069672 | 12.22° C | 83% | 1013.2 hPa | 0 mm | - | 10 W/m² | - |
| 1778069369 | 12.22° C | 83% | 1013.1 hPa | 0 mm | - | 10 W/m² | - |
| 1778069066 | 12.22° C | 82% | 1013.2 hPa | 0 mm | - | 7 W/m² | - |
| 1778068764 | 11.67° C | 82% | 1013.4 hPa | 0 mm | - | 6 W/m² | - |
| 1778068461 | 12.22° C | 82% | 1012.8 hPa | 0 mm | - | 4 W/m² | - |
| 1778068160 | 12.22° C | 82% | 1012.8 hPa | 0 mm | - | 4 W/m² | - |
| 1778067857 | 12.22° C | 81% | 1012.9 hPa | 0 mm | - | 2 W/m² | - |
* Rain latest hour (hover to see other rain measurements)
** Current wind speed in m/s (hover to see current wind gust speed)